EZY65PA EGKK-LGMK

Flight info

Callsign EZY65PA
Flight time N/A
Altitude 35000
Route ODVIK Y311 DVR UL9 KONAN DCT KOK DCT RITAX DCT KRH DCT UTABA DCT BEMKI DCT ELMEM DCT DIRAB DCT VESAL DCT PEVAL DCT SAL DCT UVODI DCT PINDO DCT SKP UN137 AGAPU
Aircraft A320/M-SDE3FGHIRWY/LB1

Departure

Time 2026-05-05 11:38
Airport London Gatwick Airport (EGKK)

Arrival

Time N/A
Airport Mykonos Island National Airport (LGMK)
Time Latitude Longitude Altitude Speed Heading
2026-05-05 10:43 51.15641 -0.17854 208 ft 0 kts 168°
2026-05-05 11:23 51.15643 -0.17855 205 ft 2 kts 168°
2026-05-05 11:23 51.15655 -0.17859 215 ft 3 kts 168°
2026-05-05 11:23 51.15672 -0.17865 210 ft 2 kts 167°
2026-05-05 11:24 51.15691 -0.17869 213 ft 3 kts 192°
2026-05-05 11:24 51.15707 -0.17858 217 ft 3 kts 227°
2026-05-05 11:24 51.15718 -0.17832 215 ft 3 kts 251°
2026-05-05 11:24 51.15722 -0.17814 216 ft 1 kts 255°
2026-05-05 11:25 51.15722 -0.17811 215 ft 0 kts 255°
2026-05-05 11:26 51.15720 -0.17826 215 ft 4 kts 255°
2026-05-05 11:27 51.15709 -0.17897 211 ft 9 kts 257°
2026-05-05 11:27 51.15694 -0.18008 208 ft 10 kts 257°
2026-05-05 11:27 51.15680 -0.18105 207 ft 8 kts 257°
2026-05-05 11:27 51.15668 -0.18192 207 ft 8 kts 257°
2026-05-05 11:28 51.15655 -0.18291 207 ft 9 kts 258°
2026-05-05 11:28 51.15623 -0.18350 209 ft 6 kts 199°
2026-05-05 11:28 51.15580 -0.18346 210 ft 9 kts 171°
2026-05-05 11:28 51.15496 -0.18316 210 ft 17 kts 169°
2026-05-05 11:29 51.15356 -0.18270 212 ft 22 kts 168°
2026-05-05 11:29 51.15254 -0.18231 205 ft 11 kts 167°
2026-05-05 11:29 51.15191 -0.18288 213 ft 15 kts 259°
2026-05-05 11:29 51.15164 -0.18499 209 ft 23 kts 257°
2026-05-05 11:30 51.15129 -0.18746 215 ft 23 kts 258°
2026-05-05 11:30 51.15097 -0.18985 214 ft 21 kts 258°
2026-05-05 11:30 51.15067 -0.19206 208 ft 22 kts 257°
2026-05-05 11:30 51.15031 -0.19466 208 ft 25 kts 258°
2026-05-05 11:31 51.14995 -0.19742 205 ft 26 kts 258°
2026-05-05 11:31 51.14955 -0.20020 212 ft 26 kts 258°
2026-05-05 11:31 51.14914 -0.20306 205 ft 27 kts 257°
2026-05-05 11:31 51.14874 -0.20597 209 ft 27 kts 258°
2026-05-05 11:32 51.14839 -0.20861 208 ft 23 kts 258°
2026-05-05 11:32 51.14808 -0.21077 212 ft 15 kts 254°
2026-05-05 11:32 51.14779 -0.21228 207 ft 13 kts 255°
2026-05-05 11:32 51.14761 -0.21350 205 ft 6 kts 257°
2026-05-05 11:33 51.14739 -0.21395 208 ft 4 kts 212°
2026-05-05 11:33 51.14736 -0.21397 208 ft 0 kts 206°
2026-05-05 11:35 51.14728 -0.21401 207 ft 3 kts 195°
2026-05-05 11:36 51.14693 -0.21396 208 ft 7 kts 159°
2026-05-05 11:36 51.14662 -0.21359 214 ft 5 kts 141°
2026-05-05 11:36 51.14639 -0.21341 207 ft 3 kts 159°
2026-05-05 11:36 51.14618 -0.21332 212 ft 1 kts 166°
2026-05-05 11:37 51.14592 -0.21321 211 ft 10 kts 164°
2026-05-05 11:37 51.14535 -0.21260 205 ft 9 kts 128°
2026-05-05 11:37 51.14522 -0.21175 206 ft 8 kts 85°
2026-05-05 11:38 51.14556 -0.20917 212 ft 55 kts 78°
2026-05-05 11:38 51.14683 -0.19977 216 ft 117 kts 77°
2026-05-05 11:38 51.14896 -0.18444 230 ft 162 kts 76°
2026-05-05 11:38 51.15131 -0.16666 834 ft 164 kts 75°
2026-05-05 11:39 51.15374 -0.14880 1570 ft 169 kts 75°
2026-05-05 11:39 51.15644 -0.12944 1885 ft 190 kts 74°
2026-05-05 11:39 51.15949 -0.10771 2092 ft 214 kts 75°
2026-05-05 11:39 51.16293 -0.08320 2390 ft 238 kts 75°
2026-05-05 11:40 51.16660 -0.05672 2995 ft 250 kts 76°
2026-05-05 11:40 51.16897 -0.02906 3846 ft 256 kts 89°
2026-05-05 11:40 51.16845 -0.00027 4783 ft 256 kts 90°
2026-05-05 11:40 51.16790 0.02781 5670 ft 259 kts 90°
2026-05-05 11:41 51.16734 0.05693 6383 ft 267 kts 91°
2026-05-05 11:41 51.16676 0.08711 7091 ft 272 kts 91°
2026-05-05 11:41 51.16620 0.11736 7832 ft 275 kts 91°
2026-05-05 11:41 51.16563 0.14814 8568 ft 279 kts 91°
2026-05-05 11:42 51.16528 0.17926 9317 ft 283 kts 89°
2026-05-05 11:42 51.16531 0.21089 10053 ft 287 kts 89°
2026-05-05 11:42 51.16546 0.24278 10733 ft 290 kts 89°
2026-05-05 11:42 51.16561 0.27493 11430 ft 292 kts 89°
2026-05-05 11:43 51.16575 0.30734 12126 ft 294 kts 89°
2026-05-05 11:43 51.16586 0.33995 12843 ft 295 kts 89°
2026-05-05 11:43 51.16595 0.37278 13508 ft 297 kts 89°
2026-05-05 11:43 51.16598 0.40601 14102 ft 303 kts 89°
2026-05-05 11:44 51.16566 0.44061 14220 ft 323 kts 90°
2026-05-05 11:44 51.16490 0.47753 14347 ft 342 kts 92°
2026-05-05 11:44 51.16391 0.51638 14470 ft 359 kts 92°
2026-05-05 11:44 51.16281 0.55684 14707 ft 372 kts 92°
2026-05-05 11:45 51.16171 0.59837 15165 ft 377 kts 92°
2026-05-05 11:45 51.16063 0.64021 15653 ft 381 kts 92°
2026-05-05 11:45 51.15956 0.68248 16172 ft 383 kts 92°
2026-05-05 11:45 51.15849 0.72505 16686 ft 387 kts 92°
2026-05-05 11:46 51.15741 0.76801 17161 ft 391 kts 92°
2026-05-05 11:46 51.15633 0.81142 17679 ft 394 kts 92°
2026-05-05 11:46 51.15523 0.85512 18184 ft 397 kts 92°
2026-05-05 11:46 51.15410 0.89934 18621 ft 400 kts 92°
2026-05-05 11:47 51.15293 0.94368 19042 ft 403 kts 92°
2026-05-05 11:47 51.15170 0.98837 19498 ft 405 kts 93°
2026-05-05 11:47 51.15044 1.03383 19955 ft 407 kts 94°
2026-05-05 11:47 51.14919 1.07842 20414 ft 408 kts 93°
2026-05-05 11:48 51.14662 1.16994 21232 ft 413 kts 94°
2026-05-05 11:48 51.14533 1.21578 21655 ft 415 kts 94°
2026-05-05 11:48 51.14401 1.26179 22022 ft 418 kts 95°
2026-05-05 11:49 51.14263 1.30823 22427 ft 420 kts 95°
2026-05-05 11:49 51.14121 1.35474 22802 ft 422 kts 94°
2026-05-05 11:49 51.13977 1.40154 23146 ft 424 kts 94°
2026-05-05 11:49 51.13830 1.44848 23531 ft 425 kts 95°
2026-05-05 11:50 51.13682 1.49562 23862 ft 427 kts 95°
2026-05-05 11:50 51.13535 1.54282 24141 ft 429 kts 95°
2026-05-05 11:50 51.13386 1.59032 24431 ft 430 kts 94°
2026-05-05 11:50 51.13232 1.63801 24697 ft 433 kts 95°
2026-05-05 11:51 51.13073 1.68595 24962 ft 435 kts 95°
2026-05-05 11:51 51.12910 1.73409 25227 ft 437 kts 96°
2026-05-05 11:51 51.12749 1.78246 25474 ft 439 kts 95°
2026-05-05 11:51 51.12586 1.83104 25735 ft 440 kts 95°
2026-05-05 11:52 51.12416 1.87983 25979 ft 442 kts 95°
2026-05-05 11:52 51.12243 1.92887 26212 ft 444 kts 95°
2026-05-05 11:52 51.12069 1.97800 26465 ft 445 kts 94°
2026-05-05 11:52 51.11892 2.02730 26686 ft 447 kts 95°
2026-05-05 11:53 51.11713 2.07677 26918 ft 449 kts 95°
2026-05-05 11:53 51.11533 2.12654 27139 ft 450 kts 94°
2026-05-05 11:53 51.11352 2.17631 27343 ft 452 kts 95°
2026-05-05 11:53 51.11166 2.22697 27557 ft 453 kts 95°
2026-05-05 11:54 51.10976 2.27711 27746 ft 455 kts 95°
2026-05-05 11:54 51.10784 2.32688 27937 ft 456 kts 95°
2026-05-05 11:54 51.10650 2.36091 28070 ft 457 kts 95°
2026-05-05 11:54 51.10449 2.41142 28284 ft 457 kts 95°
2026-05-05 11:55 51.10245 2.46181 28533 ft 457 kts 96°
2026-05-05 11:55 51.10038 2.51233 28789 ft 457 kts 96°
2026-05-05 11:55 51.09832 2.56271 29036 ft 457 kts 96°
2026-05-05 11:55 51.09563 2.61294 29292 ft 455 kts 101°
2026-05-05 11:56 51.08884 2.66185 29547 ft 452 kts 109°
2026-05-05 11:56 51.07754 2.70835 29797 ft 449 kts 117°
2026-05-05 11:56 51.06393 2.75293 30048 ft 449 kts 117°
2026-05-05 11:56 51.05035 2.79756 30288 ft 448 kts 117°
2026-05-05 11:57 51.03679 2.84228 30499 ft 448 kts 117°
2026-05-05 11:57 51.02325 2.88697 30658 ft 450 kts 118°
2026-05-05 11:57 51.00964 2.93170 30853 ft 450 kts 118°
2026-05-05 11:57 50.99597 2.97648 31073 ft 450 kts 118°
2026-05-05 11:58 50.98213 3.02171 31301 ft 449 kts 118°
2026-05-05 11:58 50.96847 3.06616 31525 ft 449 kts 118°
2026-05-05 11:58 50.95475 3.11067 31765 ft 448 kts 118°
2026-05-05 11:58 50.94109 3.15496 31986 ft 447 kts 119°
2026-05-05 11:59 50.92740 3.19927 32214 ft 447 kts 119°
2026-05-05 11:59 50.91375 3.24335 32434 ft 446 kts 119°
2026-05-05 11:59 50.90005 3.28753 32664 ft 445 kts 119°
2026-05-05 11:59 50.88646 3.33136 32907 ft 444 kts 120°
2026-05-05 12:00 50.87285 3.37519 33177 ft 442 kts 120°
2026-05-05 12:00 50.85934 3.41869 33430 ft 440 kts 121°
2026-05-05 12:00 50.84580 3.46216 33659 ft 439 kts 121°
2026-05-05 12:00 50.83229 3.50540 33906 ft 438 kts 121°
2026-05-05 12:01 50.81876 3.54853 34106 ft 437 kts 121°
2026-05-05 12:01 50.80527 3.59142 34314 ft 436 kts 121°
2026-05-05 12:01 50.79174 3.63444 34484 ft 436 kts 121°
2026-05-05 12:01 50.77823 3.67731 34648 ft 436 kts 121°
2026-05-05 12:02 50.76470 3.72026 34798 ft 437 kts 121°
2026-05-05 12:02 50.75115 3.76323 34881 ft 438 kts 121°
2026-05-05 12:02 50.72383 3.84951 34903 ft 440 kts 121°
2026-05-05 12:03 50.69644 3.93566 34906 ft 440 kts 121°
2026-05-05 12:03 50.66896 4.02183 34906 ft 440 kts 121°
2026-05-05 12:04 50.64143 4.10781 34909 ft 440 kts 121°
2026-05-05 12:04 50.61384 4.19379 34896 ft 439 kts 121°
2026-05-05 12:05 50.58609 4.28005 34895 ft 439 kts 121°
2026-05-05 12:05 50.55831 4.36568 34893 ft 439 kts 121°
2026-05-05 12:06 50.53054 4.45111 34892 ft 438 kts 121°
2026-05-05 12:06 50.50283 4.53632 34893 ft 438 kts 121°
2026-05-05 12:07 50.47510 4.62134 34892 ft 437 kts 121°
2026-05-05 12:07 50.44727 4.70632 34884 ft 438 kts 122°
2026-05-05 12:08 50.41932 4.79122 34893 ft 438 kts 122°
2026-05-05 12:08 50.39137 4.87592 34878 ft 438 kts 122°
2026-05-05 12:09 50.36329 4.96069 34879 ft 438 kts 122°
2026-05-05 12:09 50.33514 5.04526 34873 ft 438 kts 122°
2026-05-05 12:10 50.30692 5.12989 34863 ft 438 kts 122°
2026-05-05 12:10 50.27851 5.21482 34872 ft 437 kts 122°
2026-05-05 12:11 50.25038 5.29890 34876 ft 436 kts 122°
2026-05-05 12:11 50.22234 5.38216 34872 ft 436 kts 122°
2026-05-05 12:12 50.19385 5.46632 34863 ft 435 kts 122°
2026-05-05 12:12 50.16560 5.54973 34837 ft 436 kts 122°
2026-05-05 12:13 50.13726 5.63335 34835 ft 437 kts 122°
2026-05-05 12:13 50.10867 5.71708 34826 ft 438 kts 123°
2026-05-05 12:14 50.08001 5.80063 34828 ft 438 kts 123°
2026-05-05 12:14 50.05028 5.88335 34830 ft 437 kts 124°
2026-05-05 12:15 50.01954 5.96490 34827 ft 436 kts 125°
2026-05-05 12:15 49.98889 6.04593 34842 ft 434 kts 125°
2026-05-05 12:16 49.95845 6.12695 34842 ft 434 kts 125°
2026-05-05 12:16 49.92814 6.20781 34835 ft 433 kts 125°
2026-05-05 12:17 49.89780 6.28856 34843 ft 433 kts 125°
2026-05-05 12:17 49.86743 6.36908 34827 ft 433 kts 126°
2026-05-05 12:18 49.83674 6.45000 34838 ft 432 kts 126°
2026-05-05 12:18 49.80624 6.53011 34836 ft 432 kts 126°
2026-05-05 12:19 49.77577 6.61018 34833 ft 431 kts 126°
2026-05-05 12:19 49.74526 6.69000 34844 ft 430 kts 126°
2026-05-05 12:20 49.71470 6.76946 34849 ft 430 kts 126°
2026-05-05 12:20 49.68417 6.84884 34830 ft 429 kts 126°
2026-05-05 12:21 49.65364 6.92807 34845 ft 429 kts 126°
2026-05-05 12:21 49.62308 7.00683 34847 ft 428 kts 126°
2026-05-05 12:22 49.59248 7.08574 34852 ft 428 kts 126°
2026-05-05 12:22 49.56193 7.16443 34858 ft 428 kts 126°
2026-05-05 12:23 49.53124 7.24300 34843 ft 428 kts 126°
2026-05-05 12:23 49.50025 7.32193 34850 ft 428 kts 126°
2026-05-05 12:24 49.46945 7.40017 34856 ft 427 kts 126°
2026-05-05 12:24 49.43872 7.47824 34869 ft 427 kts 126°
2026-05-05 12:25 49.40792 7.55626 34853 ft 426 kts 126°
2026-05-05 12:25 49.37714 7.63407 34837 ft 427 kts 127°
2026-05-05 12:26 49.34624 7.71187 34841 ft 427 kts 127°
2026-05-05 12:26 49.32047 7.77645 34844 ft 427 kts 127°
2026-05-05 12:27 49.28914 7.85443 34849 ft 427 kts 127°
2026-05-05 12:27 49.25793 7.93197 34851 ft 427 kts 127°
2026-05-05 12:28 49.22690 8.00942 34837 ft 427 kts 126°
2026-05-05 12:28 49.19570 8.08685 34842 ft 428 kts 126°
2026-05-05 12:29 49.16442 8.16416 34844 ft 428 kts 127°
2026-05-05 12:29 49.13304 8.24153 34850 ft 428 kts 127°
2026-05-05 12:30 49.10157 8.31890 34853 ft 429 kts 127°
2026-05-05 12:30 49.07010 8.39610 34852 ft 429 kts 127°
2026-05-05 12:31 49.03850 8.47334 34855 ft 429 kts 127°
2026-05-05 12:31 49.00681 8.55020 34857 ft 428 kts 129°
2026-05-05 12:32 48.96704 8.61565 34859 ft 418 kts 145°
2026-05-05 12:32 48.92149 8.67048 34862 ft 418 kts 145°
2026-05-05 12:33 48.87593 8.72551 34862 ft 418 kts 145°
2026-05-05 12:33 48.82996 8.78090 34840 ft 419 kts 145°
2026-05-05 12:34 48.78419 8.83583 34843 ft 419 kts 145°
2026-05-05 12:34 48.73836 8.89066 34857 ft 420 kts 145°
2026-05-05 12:35 48.69251 8.94544 34848 ft 421 kts 145°
2026-05-05 12:35 48.64652 9.00026 34851 ft 421 kts 145°
2026-05-05 12:36 48.60041 9.05506 34850 ft 422 kts 145°
2026-05-05 12:36 48.55424 9.10977 34852 ft 422 kts 145°
2026-05-05 12:37 48.50806 9.16443 34834 ft 422 kts 145°
2026-05-05 12:37 48.46177 9.21915 34838 ft 423 kts 145°
2026-05-05 12:38 48.41543 9.27365 34846 ft 423 kts 145°
2026-05-05 12:38 48.36902 9.32821 34849 ft 424 kts 146°
2026-05-05 12:39 48.32227 9.38298 34852 ft 424 kts 146°
2026-05-05 12:39 48.27570 9.43738 34856 ft 424 kts 146°
2026-05-05 12:40 48.22933 9.49202 34843 ft 424 kts 144°
2026-05-05 12:40 48.18378 9.54840 34842 ft 426 kts 144°
2026-05-05 12:41 48.13823 9.60531 34857 ft 426 kts 144°
2026-05-05 12:41 48.09251 9.66167 34861 ft 426 kts 144°
2026-05-05 12:42 48.04664 9.71771 34866 ft 426 kts 144°
2026-05-05 12:42 48.00070 9.77355 34856 ft 426 kts 144°
2026-05-05 12:43 47.95477 9.82951 34851 ft 427 kts 144°
2026-05-05 12:43 47.90872 9.88557 34848 ft 428 kts 144°
2026-05-05 12:44 47.86251 9.94148 34855 ft 428 kts 144°
2026-05-05 12:44 47.81621 9.99738 34859 ft 429 kts 144°
2026-05-05 12:45 47.76993 10.05322 34855 ft 429 kts 144°
2026-05-05 12:45 47.72316 10.10957 34855 ft 430 kts 144°
2026-05-05 12:46 47.67656 10.16551 34833 ft 431 kts 145°
2026-05-05 12:46 47.62976 10.22145 34839 ft 432 kts 145°